Total_Precipitation_Accumulation
1.64 1.58 1.49 1.28 1.16 1.02 0.91 0.92 1.05 0.98 0.91 0.80 0.67 0.59 0.57 0.53 0.47 0.44 0.43 0.47 0.52 0.75 0.98 1.13 1.17 1.24 1.31 1.28 1.22 1.16 1.05 0.97 0.95 0.93 0.92 0.90 0.89 0.83 0.82 0.80 0.76 0.74 0.75
1.80 1.76 1.63 1.44 1.29 1.15 1.01 0.93 0.98 1.05 1.02 0.95 0.86 0.75 0.71 0.64 0.55 0.51 0.45 0.47 0.52 0.61 0.82 0.98 1.11 1.29 1.51 1.57 1.50 1.37 1.21 1.09 1.04 1.01 1.02 1.02 0.98 0.91 0.90 0.89 0.87 0.86 0.84
1.93 1.92 1.80 1.56 1.43 1.39 1.26 1.17 1.16 1.16 1.09 0.96 0.87 0.83 0.81 0.73 0.64 0.60 0.54 0.51 0.51 0.56 0.71 0.91 1.03 1.23 1.45 1.62 1.70 1.65 1.45 1.23 1.14 1.10 1.08 1.10 1.12 1.05 1.06 1.07 0.99 0.94 0.95
2.07 2.11 1.98 1.74 1.72 1.80 1.65 1.47 1.39 1.28 1.13 1.03 0.94 0.91 0.85 0.80 0.70 0.64 0.62 0.56 0.53 0.55 0.68 0.91 1.02 1.13 1.28 1.46 1.65 1.75 1.70 1.54 1.38 1.24 1.18 1.16 1.14 1.14 1.17 1.20 1.16 1.08 1.11
2.09 2.10 2.07 1.97 1.98 2.02 1.95 1.77 1.65 1.57 1.36 1.22 1.12 1.09 1.07 1.00 0.91 0.79 0.71 0.71 0.68 0.67 0.80 1.01 1.11 1.11 1.12 1.25 1.45 1.62 1.70 1.64 1.49 1.35 1.28 1.26 1.21 1.20 1.24 1.24 1.19 1.16 1.14
2.07 2.05 2.01 2.10 2.15 2.13 2.08 2.03 1.87 1.79 1.67 1.56 1.47 1.33 1.30 1.25 1.11 0.91 0.80 0.79 0.80 0.82 0.92 1.00 1.03 1.11 1.13 1.04 1.13 1.38 1.61 1.68 1.58 1.45 1.36 1.31 1.29 1.28 1.33 1.34 1.32 1.30 1.25
2.34 2.24 2.05 2.10 2.22 2.10 1.98 2.05 2.13 2.12 2.03 1.89 1.81 1.64 1.52 1.40 1.27 1.03 0.85 0.81 0.84 0.89 0.93 0.97 1.02 0.95 0.85 0.80 0.87 1.04 1.33 1.59 1.68 1.62 1.47 1.36 1.36 1.42 1.47 1.54 1.53 1.51 1.49
2.39 2.40 2.36 2.27 2.34 2.31 2.21 2.14 2.20 2.30 2.20 2.16 2.11 2.02 1.81 1.67 1.39 1.14 0.97 0.88 0.86 0.91 0.94 0.93 0.92 0.91 0.80 0.73 0.74 0.85 1.08 1.42 1.66 1.75 1.65 1.54 1.47 1.53 1.65 1.78 1.83 1.73 1.74
2.46 2.38 2.42 2.44 2.41 2.43 2.34 2.26 2.23 2.27 2.30 2.22 2.16 2.27 2.00 1.66 1.42 1.25 1.07 0.97 0.94 0.94 0.97 0.99 0.96 0.92 0.86 0.80 0.76 0.82 0.90 1.11 1.48 1.83 2.00 1.93 1.83 1.77 1.82 1.95 2.07 2.02 1.92
2.46 2.43 2.38 2.39 2.43 2.41 2.35 2.39 2.40 2.28 2.30 2.32 2.25 2.08 1.88 1.62 1.53 1.41 1.25 1.16 1.06 1.00 1.01 1.03 1.01 0.95 0.92 0.88 0.87 0.92 0.97 1.01 1.28 1.72 2.13 2.30 2.21 2.12 2.16 2.27 2.39 2.40 2.21
2.41 2.33 2.33 2.31 2.30 2.32 2.33 2.38 2.44 2.47 2.37 2.28 2.22 2.15 2.05 1.81 1.62 1.58 1.45 1.36 1.32 1.19 1.10 1.07 1.07 1.06 1.01 0.97 0.93 0.99 1.09 1.11 1.29 1.57 1.96 2.30 2.47 2.48 2.50 2.54 2.60 2.64 2.50
2.47 2.31 2.27 2.22 2.21 2.20 2.20 2.29 2.38 2.47 2.43 2.29 2.18 2.04 2.00 1.91 1.75 1.70 1.56 1.39 1.41 1.32 1.24 1.17 1.13 1.13 1.16 1.15 1.15 1.26 1.22 1.27 1.40 1.57 1.87 2.22 2.46 2.57 2.69 2.80 2.84 2.80 2.71
2.55 2.33 2.27 2.26 2.23 2.16 2.18 2.31 2.42 2.45 2.45 2.36 2.27 2.17 2.04 1.90 1.82 1.86 1.84 1.62 1.48 1.35 1.31 1.27 1.21 1.20 1.22 1.28 1.34 1.48 1.37 1.39 1.45 1.59 1.88 2.19 2.33 2.46 2.53 2.62 2.81 2.83 2.77
2.54 2.46 2.39 2.35 2.34 2.29 2.23 2.25 2.28 2.31 2.34 2.30 2.22 2.14 2.07 1.95 1.93 1.93 1.96 2.04 1.93 1.61 1.44 1.34 1.25 1.27 1.32 1.40 1.56 1.65 1.44 1.53 1.46 1.48 1.66 1.88 1.95 2.00 2.10 2.28 2.54 2.71 2.72
2.22 2.37 2.40 2.35 2.27 2.25 2.23 2.23 2.19 2.11 2.15 2.15 2.12 2.05 1.97 1.84 1.86 1.89 1.89 2.01 2.19 2.01 1.57 1.27 1.21 1.23 1.29 1.34 1.54 1.48 1.37 1.55 1.52 1.45 1.47 1.53 1.54 1.54 1.56 1.67 1.88 2.12 2.26
1.80 1.95 2.13 2.20 2.19 2.15 2.13 2.15 2.13 2.02 2.03 1.95 1.89 1.91 1.88 1.77 1.70 1.73 1.82 1.88 1.98 2.06 1.78 1.25 1.10 1.14 1.25 1.29 1.44 1.32 1.28 1.51 1.46 1.40 1.36 1.34 1.35 1.34 1.35 1.38 1.48 1.66 1.80
1.56 1.64 1.76 1.88 1.95 1.99 2.00 2.01 1.97 1.92 1.91 1.87 1.81 1.76 1.72 1.69 1.73 1.69 1.70 1.78 1.88 1.95 1.90 1.39 1.15 1.16 1.28 1.32 1.34 1.27 1.23 1.25 1.26 1.40 1.32 1.26 1.23 1.21 1.22 1.27 1.31 1.39 1.47
1.36 1.37 1.44 1.52 1.60 1.65 1.68 1.73 1.74 1.73 1.73 1.73 1.70 1.69 1.65 1.62 1.62 1.62 1.68 1.71 1.75 1.79 1.84 1.62 1.31 1.21 1.22 1.22 1.23 1.23 1.19 1.15 1.12 1.31 1.29 1.24 1.21 1.16 1.14 1.15 1.21 1.26 1.29
1.36 1.28 1.24 1.29 1.33 1.37 1.42 1.44 1.46 1.49 1.50 1.51 1.55 1.58 1.57 1.62 1.67 1.62 1.60 1.58 1.55 1.56 1.63 1.65 1.43 1.21 1.15 1.14 1.18 1.18 1.13 1.09 1.03 1.12 1.20 1.26 1.25 1.21 1.19 1.16 1.20 1.21 1.19
1.27 1.29 1.19 1.12 1.15 1.20 1.25 1.31 1.33 1.35 1.38 1.42 1.45 1.48 1.50 1.54 1.55 1.56 1.60 1.58 1.53 1.53 1.53 1.58 1.52 1.38 1.30 1.23 1.27 1.28 1.25 1.14 1.08 1.00 1.11 1.17 1.27 1.26 1.17 1.08 1.04 1.07 1.12
1.13 1.19 1.18 1.11 1.06 1.09 1.15 1.20 1.24 1.28 1.30 1.34 1.37 1.38 1.43 1.56 1.61 1.59 1.57 1.56 1.61 1.72 1.72 1.73 1.63 1.46 1.33 1.29 1.26 1.18 1.22 1.20 1.17 1.12 1.11 1.07 1.03 1.02 1.04 1.05 1.04 1.03 1.11
1.05 1.13 1.18 1.18 1.16 1.17 1.39 1.38 1.29 1.28 1.31 1.31 1.31 1.27 1.29 1.37 1.39 1.46 1.50 1.50 1.61 1.77 1.90 1.89 1.71 1.43 1.20 1.10 1.08 1.15 1.27 1.36 1.30 1.02 0.99 1.04 1.01 1.05 1.00 0.99 1.13 1.10 1.10
1.11 1.19 1.25 1.28 1.28 1.34 1.48 1.40 1.38 1.25 1.23 1.24 1.22 1.19 1.16 1.15 1.20 1.10 1.21 1.29 1.34 1.49 1.60 1.55 1.47 1.23 1.09 1.07 1.23 1.36 1.32 1.31 1.15 0.96 1.05 1.15 1.09 1.10 1.02 1.04 1.18 1.10 1.10
1.31 1.36 1.42 1.43 1.43 1.43 1.46 1.38 1.39 1.21 1.11 1.07 1.02 0.96 0.95 0.93 0.95 1.03 1.09 1.17 1.10 1.08 1.11 1.10 1.10 1.05 1.04 1.12 1.33 1.55 1.58 1.55 1.29 1.09 1.09 1.22 1.07 1.05 1.03 1.06 1.16 1.11 1.12
1.41 1.37 1.36 1.35 1.33 1.30 1.30 1.25 1.24 1.09 1.02 0.95 0.86 0.81 0.81 0.79 0.95 1.13 1.14 1.18 1.02 0.92 0.99 1.10 1.18 1.22 1.32 1.38 1.45 1.71 1.89 1.98 1.75 1.28 1.06 1.12 1.02 0.98 1.03 1.06 1.08 1.12 1.11
1.17 1.12 1.08 1.04 1.02 0.98 1.03 1.03 1.06 1.01 0.96 0.86 0.78 0.75 0.84 0.83 1.00 1.15 1.10 1.13 1.08 0.90 0.90 0.98 1.04 1.09 1.09 1.18 1.36 1.40 1.61 1.96 1.81 1.47 1.02 1.09 1.11 1.20 1.46 1.14 1.01 1.00 1.03